{"data":{"norad_id":57237,"epoch":"2026-05-25T04:02:08.102976Z","epoch_age_seconds":70710,"freshness":"FRESH","line1":"1 57237U 23094V   26145.16814934 -.00001225  00000+0 -35029-4 0  9990","line2":"2 57237  43.0020 318.6559 0001210 267.4933  92.5780 15.27564168158819","mean_motion":15.27564168,"eccentricity":0.000121,"inclination_deg":43.002,"raan_deg":318.6559,"arg_perigee_deg":267.4933,"mean_anomaly_deg":92.578,"bstar":-3.5029e-5,"rev_number":15881,"period_min":94.267725714289,"perigee_km":482.26629389875,"apogee_km":483.92671240651,"semimajor_km":6861.2335031526,"source":"CELESTRAK","updated_at":"2026-05-25T13:38:18.255739Z"}}